ACA612 CYYZ-CYHZ

Flight info

Callsign ACA612
Flight time 1h 39m
Altitude 37000
Route DEDKI5 OLABA Q951 TALNO Q929 TOXAL DCT EBONY FUNDY5
Aircraft B38M/M-SDE1FGHILORVWXY/HB1

Departure

Time 2026-05-05 01:41
Airport Toronto Pearson International Airport (CYYZ)

Arrival

Time 2026-05-05 03:21
Airport Halifax / Stanfield International Airport (CYHZ)
Time Latitude Longitude Altitude Speed Heading
2026-05-05 01:07 43.68331 -79.61948 564 ft 0 kts 287°
2026-05-05 01:28 43.68328 -79.61936 564 ft 4 kts 287°
2026-05-05 01:29 43.68320 -79.61901 571 ft 4 kts 287°
2026-05-05 01:29 43.68316 -79.61865 571 ft 4 kts 260°
2026-05-05 01:29 43.68327 -79.61838 573 ft 4 kts 205°
2026-05-05 01:29 43.68337 -79.61834 571 ft 1 kts 185°
2026-05-05 01:34 43.68333 -79.61835 564 ft 1 kts 185°
2026-05-05 01:34 43.68316 -79.61837 570 ft 4 kts 185°
2026-05-05 01:34 43.68285 -79.61835 568 ft 6 kts 173°
2026-05-05 01:35 43.68241 -79.61824 564 ft 7 kts 169°
2026-05-05 01:35 43.68183 -79.61814 567 ft 9 kts 182°
2026-05-05 01:35 43.68127 -79.61864 566 ft 11 kts 230°
2026-05-05 01:35 43.68072 -79.61944 567 ft 12 kts 226°
2026-05-05 01:36 43.68018 -79.61985 570 ft 9 kts 199°
2026-05-05 01:36 43.67965 -79.62034 572 ft 10 kts 237°
2026-05-05 01:36 43.67984 -79.62116 567 ft 11 kts 316°
2026-05-05 01:36 43.68041 -79.62191 564 ft 13 kts 316°
2026-05-05 01:37 43.68130 -79.62308 564 ft 22 kts 316°
2026-05-05 01:37 43.68245 -79.62453 568 ft 18 kts 321°
2026-05-05 01:37 43.68317 -79.62537 565 ft 12 kts 317°
2026-05-05 01:37 43.68403 -79.62650 565 ft 22 kts 316°
2026-05-05 01:38 43.68537 -79.62825 572 ft 31 kts 318°
2026-05-05 01:38 43.68690 -79.63024 564 ft 28 kts 317°
2026-05-05 01:38 43.68822 -79.63199 564 ft 26 kts 317°
2026-05-05 01:38 43.68952 -79.63365 567 ft 25 kts 317°
2026-05-05 01:39 43.69069 -79.63517 567 ft 15 kts 317°
2026-05-05 01:39 43.69136 -79.63504 568 ft 10 kts 42°
2026-05-05 01:39 43.69195 -79.63434 573 ft 12 kts 24°
2026-05-05 01:39 43.69289 -79.63422 570 ft 15 kts 360°
2026-05-05 01:40 43.69382 -79.63457 563 ft 13 kts 316°
2026-05-05 01:40 43.69377 -79.63565 565 ft 12 kts 223°
2026-05-05 01:40 43.69315 -79.63653 569 ft 16 kts 226°
2026-05-05 01:40 43.69083 -79.63988 571 ft 83 kts 226°
2026-05-05 01:41 43.68533 -79.64784 571 ft 143 kts 226°
2026-05-05 01:41 43.67781 -79.65868 943 ft 158 kts 224°
2026-05-05 01:41 43.66996 -79.66988 1665 ft 164 kts 224°
2026-05-05 01:41 43.66215 -79.68109 2545 ft 164 kts 226°
2026-05-05 01:42 43.65320 -79.69286 3042 ft 189 kts 217°
2026-05-05 01:42 43.64005 -79.69876 3695 ft 216 kts 185°
2026-05-05 01:42 43.62467 -79.69250 4350 ft 252 kts 156°
2026-05-05 01:42 43.61041 -79.67716 5180 ft 266 kts 147°
2026-05-05 01:43 43.59583 -79.66093 6033 ft 272 kts 149°
2026-05-05 01:43 43.58043 -79.64543 6932 ft 273 kts 153°
2026-05-05 01:43 43.56430 -79.63114 7802 ft 277 kts 156°
2026-05-05 01:43 43.54737 -79.61801 8604 ft 283 kts 160°
2026-05-05 01:44 43.52967 -79.60516 9377 ft 294 kts 154°
2026-05-05 01:44 43.51450 -79.58480 10006 ft 318 kts 122°
2026-05-05 01:44 43.50848 -79.55583 11042 ft 323 kts 96°
2026-05-05 01:44 43.51128 -79.52493 11712 ft 330 kts 74°
2026-05-05 01:45 43.51795 -79.49464 12523 ft 334 kts 71°
2026-05-05 01:45 43.52510 -79.46333 12954 ft 352 kts 72°
2026-05-05 01:45 43.53218 -79.43031 13461 ft 365 kts 71°
2026-05-05 01:45 43.54018 -79.39652 14020 ft 375 kts 71°
2026-05-05 01:46 43.54817 -79.36203 14712 ft 380 kts 71°
2026-05-05 01:46 43.55610 -79.32711 15409 ft 385 kts 72°
2026-05-05 01:46 43.56406 -79.29166 16108 ft 389 kts 72°
2026-05-05 01:46 43.57207 -79.25579 16785 ft 394 kts 72°
2026-05-05 01:47 43.58005 -79.21995 17449 ft 398 kts 72°
2026-05-05 01:47 43.58554 -79.19524 17895 ft 401 kts 72°
2026-05-05 01:47 43.59644 -79.14613 18643 ft 407 kts 72°
2026-05-05 01:47 43.60474 -79.10867 19221 ft 410 kts 72°
2026-05-05 01:48 43.61309 -79.07085 19776 ft 414 kts 72°
2026-05-05 01:48 43.62150 -79.03275 20344 ft 417 kts 72°
2026-05-05 01:48 43.62709 -79.00733 20742 ft 418 kts 72°
2026-05-05 01:48 43.63568 -78.96827 21287 ft 422 kts 72°
2026-05-05 01:49 43.64412 -78.92983 21826 ft 426 kts 72°
2026-05-05 01:49 43.65273 -78.89052 22359 ft 429 kts 71°
2026-05-05 01:49 43.66139 -78.85093 22886 ft 432 kts 71°
2026-05-05 01:49 43.67009 -78.81105 23371 ft 436 kts 71°
2026-05-05 01:50 43.67887 -78.77081 23825 ft 439 kts 71°
2026-05-05 01:50 43.68773 -78.73024 24227 ft 443 kts 70°
2026-05-05 01:50 43.69898 -78.69066 24645 ft 443 kts 65°
2026-05-05 01:50 43.71103 -78.65127 25089 ft 445 kts 64°
2026-05-05 01:51 43.72313 -78.61185 25523 ft 448 kts 64°
2026-05-05 01:51 43.73535 -78.57210 25925 ft 451 kts 64°
2026-05-05 01:51 43.74763 -78.53210 26336 ft 453 kts 64°
2026-05-05 01:51 43.75997 -78.49186 26728 ft 456 kts 64°
2026-05-05 01:52 43.77236 -78.45137 27127 ft 458 kts 64°
2026-05-05 01:52 43.78481 -78.41062 27513 ft 461 kts 64°
2026-05-05 01:52 43.79732 -78.36964 27897 ft 463 kts 64°
2026-05-05 01:52 43.80986 -78.32848 28269 ft 466 kts 64°
2026-05-05 01:53 43.82247 -78.28701 28657 ft 469 kts 65°
2026-05-05 01:53 43.83516 -78.24524 28971 ft 472 kts 65°
2026-05-05 01:53 43.84791 -78.20319 29318 ft 475 kts 65°
2026-05-05 01:53 43.86070 -78.16093 29681 ft 477 kts 65°
2026-05-05 01:54 43.87337 -78.11900 29970 ft 479 kts 65°
2026-05-05 01:54 43.88626 -78.07629 30273 ft 481 kts 65°
2026-05-05 01:54 43.89935 -78.03283 30583 ft 483 kts 64°
2026-05-05 01:54 43.91210 -77.99041 30870 ft 485 kts 64°
2026-05-05 01:55 43.92509 -77.94716 31161 ft 486 kts 64°
2026-05-05 01:55 43.93809 -77.90377 31495 ft 487 kts 64°
2026-05-05 01:55 43.95110 -77.86027 31778 ft 489 kts 64°
2026-05-05 01:55 43.96415 -77.81658 32059 ft 491 kts 64°
2026-05-05 01:56 43.97724 -77.77269 32329 ft 493 kts 64°
2026-05-05 01:56 43.99037 -77.72856 32595 ft 495 kts 64°
2026-05-05 01:56 44.00351 -77.68436 32879 ft 497 kts 64°
2026-05-05 01:56 44.01669 -77.63989 33144 ft 498 kts 64°
2026-05-05 01:57 44.02990 -77.59528 33418 ft 500 kts 64°
2026-05-05 01:57 44.04307 -77.55074 33795 ft 498 kts 64°
2026-05-05 01:57 44.05618 -77.50629 34175 ft 496 kts 64°
2026-05-05 01:57 44.06926 -77.46193 34487 ft 496 kts 64°
2026-05-05 01:58 44.08314 -77.41821 34799 ft 493 kts 60°
2026-05-05 01:58 44.09770 -77.37498 35097 ft 493 kts 61°
2026-05-05 01:58 44.11202 -77.33183 35393 ft 492 kts 62°
2026-05-05 01:58 44.12629 -77.28856 35679 ft 492 kts 62°
2026-05-05 01:59 44.14052 -77.24532 35965 ft 491 kts 62°
2026-05-05 01:59 44.15471 -77.20212 36252 ft 490 kts 62°
2026-05-05 01:59 44.16883 -77.15906 36594 ft 488 kts 62°
2026-05-05 01:59 44.18292 -77.11603 36723 ft 489 kts 62°
2026-05-05 02:00 44.21099 -77.03009 36700 ft 486 kts 62°
2026-05-05 02:00 44.23896 -76.94416 36703 ft 487 kts 62°
2026-05-05 02:01 44.26690 -76.85805 36701 ft 488 kts 62°
2026-05-05 02:01 44.29462 -76.77236 36708 ft 487 kts 62°
2026-05-05 02:02 44.32258 -76.68562 36702 ft 487 kts 62°
2026-05-05 02:02 44.35014 -76.59985 36707 ft 487 kts 62°
2026-05-05 02:03 44.37781 -76.51345 36711 ft 487 kts 63°
2026-05-05 02:03 44.40546 -76.42681 36714 ft 488 kts 63°
2026-05-05 02:04 44.43307 -76.34004 36704 ft 488 kts 63°
2026-05-05 02:04 44.46063 -76.25317 36706 ft 488 kts 63°
2026-05-05 02:05 44.48810 -76.16614 36696 ft 488 kts 63°
2026-05-05 02:05 44.51549 -76.07911 36695 ft 488 kts 63°
2026-05-05 02:06 44.54284 -75.99189 36692 ft 489 kts 63°
2026-05-05 02:06 44.57018 -75.90445 36690 ft 489 kts 63°
2026-05-05 02:07 44.59740 -75.81706 36683 ft 489 kts 63°
2026-05-05 02:07 44.62462 -75.72939 36685 ft 491 kts 63°
2026-05-05 02:08 44.65126 -75.64101 36685 ft 492 kts 65°
2026-05-05 02:08 44.67614 -75.55143 36696 ft 493 kts 65°
2026-05-05 02:09 44.70057 -75.46146 36677 ft 493 kts 66°
2026-05-05 02:09 44.72524 -75.37197 36681 ft 490 kts 64°
2026-05-05 02:10 44.75132 -75.28409 36685 ft 490 kts 64°
2026-05-05 02:10 44.77732 -75.19539 36691 ft 490 kts 64°
2026-05-05 02:11 44.80323 -75.10662 36707 ft 490 kts 64°
2026-05-05 02:11 44.82906 -75.01780 36699 ft 490 kts 64°
2026-05-05 02:12 44.86754 -74.88490 36710 ft 488 kts 64°
2026-05-05 02:13 44.89307 -74.79635 36708 ft 488 kts 64°
2026-05-05 02:13 44.91723 -74.70685 36701 ft 490 kts 71°
2026-05-05 02:14 44.93688 -74.61482 36721 ft 491 kts 70°
2026-05-05 02:14 44.95721 -74.52286 36716 ft 490 kts 70°
2026-05-05 02:15 44.97738 -74.43169 36701 ft 489 kts 70°
2026-05-05 02:15 44.99656 -74.33950 36700 ft 490 kts 73°
2026-05-05 02:16 45.01386 -74.24627 36679 ft 490 kts 72°
2026-05-05 02:16 45.03130 -74.15313 36693 ft 490 kts 72°
2026-05-05 02:17 45.04867 -74.06002 36723 ft 490 kts 72°
2026-05-05 02:17 45.06599 -73.96673 36697 ft 490 kts 72°
2026-05-05 02:18 45.07848 -73.87202 36699 ft 492 kts 87°
2026-05-05 02:18 45.08223 -73.77506 36680 ft 494 kts 85°
2026-05-05 02:19 45.08606 -73.67856 36706 ft 495 kts 85°
2026-05-05 02:19 45.08978 -73.58162 36701 ft 492 kts 85°
2026-05-05 02:20 45.09313 -73.48485 36710 ft 493 kts 85°
2026-05-05 02:20 45.09642 -73.38793 36711 ft 493 kts 85°
2026-05-05 02:21 45.09964 -73.29101 36716 ft 493 kts 85°
2026-05-05 02:21 45.10276 -73.19424 36723 ft 492 kts 85°
2026-05-05 02:22 45.10581 -73.09748 36751 ft 492 kts 85°
2026-05-05 02:22 45.10877 -73.00068 36737 ft 492 kts 85°
2026-05-05 02:23 45.11165 -72.90374 36734 ft 493 kts 85°
2026-05-05 02:23 45.11445 -72.80694 36747 ft 492 kts 86°
2026-05-05 02:24 45.11717 -72.71009 36754 ft 492 kts 86°
2026-05-05 02:24 45.11981 -72.61320 36753 ft 492 kts 86°
2026-05-05 02:25 45.12234 -72.51694 36762 ft 492 kts 86°
2026-05-05 02:25 45.12484 -72.41948 36756 ft 492 kts 86°
2026-05-05 02:26 45.12720 -72.32340 36765 ft 492 kts 86°
2026-05-05 02:26 45.12951 -72.22668 36765 ft 491 kts 86°
2026-05-05 02:27 45.13173 -72.12990 36762 ft 491 kts 86°
2026-05-05 02:27 45.13388 -72.03315 36769 ft 492 kts 86°
2026-05-05 02:28 45.13594 -71.93640 36765 ft 492 kts 86°
2026-05-05 02:28 45.13792 -71.83959 36768 ft 492 kts 86°
2026-05-05 02:29 45.13982 -71.74274 36777 ft 492 kts 86°
2026-05-05 02:29 45.14167 -71.64586 36780 ft 492 kts 86°
2026-05-05 02:30 45.14084 -71.54901 36796 ft 492 kts 92°
2026-05-05 02:30 45.13688 -71.45218 36788 ft 493 kts 91°
2026-05-05 02:31 45.13332 -71.35525 36797 ft 493 kts 91°
2026-05-05 02:31 45.12975 -71.25837 36799 ft 493 kts 91°
2026-05-05 02:32 45.12609 -71.16148 36809 ft 493 kts 91°
2026-05-05 02:32 45.12237 -71.06523 36798 ft 493 kts 91°
2026-05-05 02:33 45.11855 -70.96837 36809 ft 493 kts 91°
2026-05-05 02:33 45.11465 -70.87155 36802 ft 493 kts 91°
2026-05-05 02:34 45.11065 -70.77456 36796 ft 495 kts 91°
2026-05-05 02:34 45.10657 -70.67734 36811 ft 495 kts 91°
2026-05-05 02:35 45.10240 -70.58018 36794 ft 494 kts 91°
2026-05-05 02:35 45.09815 -70.48303 36808 ft 495 kts 92°
2026-05-05 02:36 45.09383 -70.38594 36811 ft 495 kts 91°
2026-05-05 02:36 45.08940 -70.28858 36807 ft 495 kts 92°
2026-05-05 02:37 45.08489 -70.19123 36806 ft 496 kts 92°
2026-05-05 02:37 45.08030 -70.09389 36800 ft 496 kts 92°
2026-05-05 02:38 45.07564 -69.99672 36807 ft 495 kts 92°
2026-05-05 02:38 45.07088 -69.89942 36802 ft 496 kts 92°
2026-05-05 02:39 45.06607 -69.80268 36805 ft 496 kts 92°
2026-05-05 02:39 45.06116 -69.70551 36806 ft 496 kts 92°
2026-05-05 02:40 45.05616 -69.60818 36804 ft 497 kts 92°
2026-05-05 02:40 45.05106 -69.51072 36808 ft 497 kts 92°
2026-05-05 02:41 45.04588 -69.41327 36806 ft 497 kts 92°
2026-05-05 02:41 45.04062 -69.31594 36809 ft 497 kts 92°
2026-05-05 02:42 45.03615 -69.23429 36811 ft 497 kts 92°
2026-05-05 02:42 45.03073 -69.13690 36829 ft 497 kts 92°
2026-05-05 02:43 45.02529 -69.04036 36818 ft 496 kts 92°
2026-05-05 02:43 45.01971 -68.94305 36817 ft 497 kts 92°
2026-05-05 02:44 45.01405 -68.84572 36823 ft 497 kts 92°
2026-05-05 02:44 45.00830 -68.74839 36825 ft 497 kts 92°
2026-05-05 02:45 45.00248 -68.65122 36834 ft 497 kts 92°
2026-05-05 02:45 44.99657 -68.55395 36844 ft 497 kts 93°
2026-05-05 02:46 44.99058 -68.45669 36860 ft 497 kts 93°
2026-05-05 02:46 44.98451 -68.35946 36852 ft 497 kts 93°
2026-05-05 02:47 44.97836 -68.26234 36854 ft 497 kts 93°
2026-05-05 02:47 44.97212 -68.16517 36853 ft 496 kts 93°
2026-05-05 02:48 44.96580 -68.06801 36854 ft 497 kts 93°
2026-05-05 02:48 44.95938 -67.97070 36856 ft 498 kts 93°
2026-05-05 02:49 44.95289 -67.87341 36853 ft 498 kts 93°
2026-05-05 02:49 44.94635 -67.77680 36854 ft 498 kts 93°
2026-05-05 02:50 44.93965 -67.67898 36855 ft 498 kts 93°
2026-05-05 02:50 44.93295 -67.58230 36882 ft 498 kts 93°
2026-05-05 02:51 44.92614 -67.48496 36854 ft 498 kts 93°
2026-05-05 02:51 44.91925 -67.38761 36866 ft 499 kts 94°
2026-05-05 02:52 44.91229 -67.29039 36873 ft 499 kts 94°
2026-05-05 02:52 44.90523 -67.19289 36874 ft 500 kts 94°
2026-05-05 02:53 44.90255 -67.09534 36892 ft 498 kts 88°
2026-05-05 02:53 44.90231 -66.99780 36875 ft 497 kts 87°
2026-05-05 02:54 44.90212 -66.90020 36871 ft 498 kts 88°
2026-05-05 02:54 44.90186 -66.80243 36620 ft 497 kts 87°
2026-05-05 02:54 44.90170 -66.75370 36343 ft 497 kts 87°
2026-05-05 02:55 44.90152 -66.70495 36065 ft 497 kts 86°
2026-05-05 02:55 44.90132 -66.65619 35789 ft 497 kts 86°
2026-05-05 02:55 44.90110 -66.60774 35202 ft 494 kts 85°
2026-05-05 02:55 44.90084 -66.55897 34186 ft 503 kts 84°
2026-05-05 02:56 44.90057 -66.50913 33027 ft 512 kts 84°
2026-05-05 02:56 44.90027 -66.45868 32231 ft 514 kts 85°
2026-05-05 02:56 44.89995 -66.40932 31870 ft 505 kts 84°
2026-05-05 02:56 44.89962 -66.36030 31566 ft 495 kts 84°
2026-05-05 02:57 44.89928 -66.31211 31083 ft 491 kts 84°
2026-05-05 02:57 44.89892 -66.26403 30441 ft 490 kts 84°
2026-05-05 02:57 44.89853 -66.21589 29784 ft 491 kts 84°
2026-05-05 02:57 44.89811 -66.16792 29211 ft 487 kts 85°
2026-05-05 02:58 44.89769 -66.12038 28700 ft 482 kts 85°
2026-05-05 02:58 44.89725 -66.07326 28179 ft 479 kts 85°
2026-05-05 02:58 44.89680 -66.02659 27662 ft 475 kts 85°
2026-05-05 02:58 44.89633 -65.98015 27157 ft 472 kts 85°
2026-05-05 02:59 44.89585 -65.93403 26646 ft 469 kts 86°
2026-05-05 02:59 44.89535 -65.88818 26143 ft 466 kts 86°
2026-05-05 02:59 44.89483 -65.84257 25648 ft 464 kts 86°
2026-05-05 02:59 44.89430 -65.79716 25153 ft 462 kts 87°
2026-05-05 03:00 44.89376 -65.75197 24659 ft 460 kts 87°
2026-05-05 03:00 44.89319 -65.70696 24179 ft 458 kts 87°
2026-05-05 03:00 44.89262 -65.66214 23699 ft 456 kts 88°
2026-05-05 03:00 44.89204 -65.61754 23179 ft 455 kts 88°
2026-05-05 03:01 44.89145 -65.57293 22662 ft 453 kts 88°
2026-05-05 03:01 44.89084 -65.52883 22214 ft 449 kts 88°
2026-05-05 03:01 44.89019 -65.48493 21696 ft 447 kts 88°
2026-05-05 03:01 44.88953 -65.44119 21289 ft 444 kts 87°
2026-05-05 03:02 44.88887 -65.39837 20876 ft 441 kts 88°
2026-05-05 03:02 44.88819 -65.35524 20450 ft 439 kts 88°
2026-05-05 03:02 44.88750 -65.31231 20017 ft 437 kts 88°
2026-05-05 03:02 44.88680 -65.26968 19588 ft 434 kts 88°
2026-05-05 03:03 44.88610 -65.22736 19294 ft 428 kts 88°
2026-05-05 03:03 44.88538 -65.18554 18934 ft 425 kts 88°
2026-05-05 03:03 44.88465 -65.14395 18535 ft 423 kts 89°
2026-05-05 03:03 44.88391 -65.10256 18142 ft 422 kts 89°
2026-05-05 03:04 44.88316 -65.06140 17696 ft 420 kts 89°
2026-05-05 03:04 44.88240 -65.02038 17285 ft 417 kts 89°
2026-05-05 03:04 44.88163 -64.97966 16897 ft 414 kts 89°
2026-05-05 03:04 44.88085 -64.93923 16510 ft 411 kts 89°
2026-05-05 03:05 44.88007 -64.89905 16125 ft 408 kts 89°
2026-05-05 03:05 44.87926 -64.85913 15726 ft 406 kts 89°
2026-05-05 03:05 44.87846 -64.81946 15346 ft 404 kts 89°
2026-05-05 03:05 44.87764 -64.78003 14968 ft 401 kts 90°
2026-05-05 03:06 44.87682 -64.74078 14581 ft 400 kts 90°
2026-05-05 03:06 44.87599 -64.70170 14200 ft 398 kts 90°
2026-05-05 03:06 44.87514 -64.66281 13817 ft 396 kts 90°
2026-05-05 03:06 44.87429 -64.62415 13394 ft 395 kts 90°
2026-05-05 03:07 44.87342 -64.58555 12986 ft 393 kts 90°
2026-05-05 03:07 44.87255 -64.54717 12598 ft 390 kts 90°
2026-05-05 03:07 44.87167 -64.50910 12212 ft 387 kts 90°
2026-05-05 03:07 44.87080 -64.47178 11870 ft 385 kts 90°
2026-05-05 03:08 44.86991 -64.43414 11463 ft 383 kts 91°
2026-05-05 03:08 44.86900 -64.39617 11073 ft 382 kts 91°
2026-05-05 03:08 44.86810 -64.35939 10711 ft 379 kts 91°
2026-05-05 03:08 44.86719 -64.32266 10508 ft 372 kts 91°
2026-05-05 03:09 44.86631 -64.28682 10374 ft 358 kts 91°
2026-05-05 03:09 44.86545 -64.25261 10236 ft 340 kts 91°
2026-05-05 03:09 44.86463 -64.22009 10099 ft 326 kts 91°
2026-05-05 03:09 44.86618 -64.18823 9918 ft 331 kts 75°
2026-05-05 03:10 44.87130 -64.15624 9570 ft 337 kts 73°
2026-05-05 03:10 44.87650 -64.12385 9212 ft 339 kts 74°
2026-05-05 03:10 44.88161 -64.09140 8888 ft 339 kts 74°
2026-05-05 03:10 44.88664 -64.05909 8588 ft 336 kts 75°
2026-05-05 03:11 44.89163 -64.02699 8273 ft 334 kts 75°
2026-05-05 03:11 44.89656 -63.99511 7969 ft 331 kts 75°
2026-05-05 03:11 44.90145 -63.96347 7674 ft 329 kts 75°
2026-05-05 03:11 44.90626 -63.93221 7354 ft 322 kts 75°
2026-05-05 03:12 44.91095 -63.90178 7059 ft 312 kts 75°
2026-05-05 03:12 44.91547 -63.87232 6788 ft 303 kts 75°
2026-05-05 03:12 44.91985 -63.84373 6490 ft 293 kts 75°
2026-05-05 03:12 44.92409 -63.81606 6288 ft 283 kts 75°
2026-05-05 03:13 44.92814 -63.78948 6044 ft 273 kts 75°
2026-05-05 03:13 44.93208 -63.76369 5800 ft 262 kts 74°
2026-05-05 03:13 44.93580 -63.73930 5692 ft 250 kts 74°
2026-05-05 03:13 44.93938 -63.71573 5584 ft 249 kts 74°
2026-05-05 03:14 44.94301 -63.69187 5498 ft 249 kts 74°
2026-05-05 03:14 44.94661 -63.66808 5384 ft 248 kts 74°
2026-05-05 03:14 44.95026 -63.64399 5261 ft 247 kts 74°
2026-05-05 03:14 44.95378 -63.62062 5119 ft 246 kts 74°
2026-05-05 03:15 44.95741 -63.59704 4991 ft 245 kts 71°
2026-05-05 03:15 44.96495 -63.57658 4803 ft 227 kts 36°
2026-05-05 03:15 44.97684 -63.56268 4656 ft 221 kts 26°
2026-05-05 03:15 44.98914 -63.54977 4474 ft 220 kts 25°
2026-05-05 03:16 45.00125 -63.53634 4247 ft 224 kts 33°
2026-05-05 03:16 45.01121 -63.51904 3961 ft 233 kts 54°
2026-05-05 03:16 45.01616 -63.49694 3639 ft 240 kts 82°
2026-05-05 03:16 45.01437 -63.47365 3323 ft 238 kts 110°
2026-05-05 03:17 45.00656 -63.45363 3022 ft 229 kts 137°
2026-05-05 03:17 44.99470 -63.43965 2708 ft 217 kts 160°
2026-05-05 03:17 44.98124 -63.43297 2477 ft 192 kts 181°
2026-05-05 03:17 44.96911 -63.43236 2268 ft 162 kts 198°
2026-05-05 03:18 44.95870 -63.43542 1976 ft 142 kts 212°
2026-05-05 03:18 44.94987 -63.44085 1858 ft 135 kts 220°
2026-05-05 03:18 44.94200 -63.44778 1701 ft 134 kts 225°
2026-05-05 03:18 44.93464 -63.45564 1584 ft 131 kts 227°
2026-05-05 03:19 44.92098 -63.47173 1304 ft 130 kts 223°
2026-05-05 03:19 44.91368 -63.47952 1151 ft 135 kts 220°
2026-05-05 03:19 44.90582 -63.48749 964 ft 140 kts 217°
2026-05-05 03:20 44.89771 -63.49546 756 ft 142 kts 215°
2026-05-05 03:20 44.88979 -63.50340 555 ft 141 kts 215°
2026-05-05 03:20 44.88213 -63.51095 457 ft 123 kts 215°
2026-05-05 03:20 44.87644 -63.51661 453 ft 75 kts 215°
2026-05-05 03:21 44.87329 -63.51971 450 ft 35 kts 215°
2026-05-05 03:21 44.87215 -63.52085 451 ft 22 kts 215°
2026-05-05 03:21 44.87051 -63.52248 452 ft 34 kts 215°
2026-05-05 03:21 44.86915 -63.52406 452 ft 19 kts 246°
2026-05-05 03:22 44.86950 -63.52520 453 ft 12 kts 325°
2026-05-05 03:22 44.87035 -63.52545 454 ft 14 kts 356°
2026-05-05 03:22 44.87127 -63.52500 454 ft 15 kts 36°
2026-05-05 03:22 44.87221 -63.52406 454 ft 18 kts 34°
2026-05-05 03:23 44.87330 -63.52302 454 ft 20 kts 35°
2026-05-05 03:23 44.87449 -63.52182 454 ft 22 kts 35°
2026-05-05 03:23 44.87582 -63.52052 454 ft 24 kts 35°
2026-05-05 03:23 44.87725 -63.51911 454 ft 26 kts 35°
2026-05-05 03:24 44.87855 -63.51780 454 ft 22 kts 36°
2026-05-05 03:24 44.87984 -63.51652 454 ft 24 kts 34°
2026-05-05 03:24 44.88125 -63.51515 454 ft 25 kts 34°
2026-05-05 03:24 44.88263 -63.51377 454 ft 23 kts 33°
2026-05-05 03:25 44.88371 -63.51267 454 ft 16 kts 41°
2026-05-05 03:25 44.88447 -63.51204 454 ft 10 kts
2026-05-05 03:25 44.88521 -63.51219 454 ft 12 kts 350°
2026-05-05 03:25 44.88610 -63.51240 454 ft 12 kts 351°
2026-05-05 03:26 44.88655 -63.51274 454 ft 3 kts 291°
2026-05-05 03:26 44.88651 -63.51301 454 ft 8 kts 257°
2026-05-05 03:26 44.88644 -63.51357 454 ft 2 kts 259°
2026-05-05 03:26 44.88642 -63.51372 454 ft 0 kts 260°